Location: Boissi�res
(45.2500°N, 2.3667°E)
Time: 14:29:32
(UTC+00:00)

Meteor 1-20 Rocket - Pass Details

Date: 03 March 2021
Orbit: 820 x 891 km, 81.2° (Epoch: 22 April)

Event Time Altitude Azimuth Distance (km) Brightness Sun altitude
Rises 18:06:40 0° 182° (S) 3,338 7.4 -5.4°
Reaches altitude 10° 18:09:03 10° 180° (S) 2,409 6.6 -5.8°
Maximum altitude 18:14:27 71° 98° (E) 869 4.1 -6.8°
Drops below altitude 10° 18:19:56 10° 15° (NNE) 2,441 6.4 -7.7°
Sets 18:22:22 0° 13° (NNE) 3,387 7.2 -8.1°
